Location: ???????????
(55.5758°N, 38.4970°E)
Time: 17:21:36
(UTC+00:00)

Aureole 3 Rocket - Pass Details

Date: 15 November 2025
Orbit: 398 x 1690 km, 82.5° (Epoch: 14 December)

Event Time Altitude Azimuth Distance (km) Brightness Sun altitude
Exits shadow 02:35:59 - 345° (NNW) 2,290 5.8 -20.0°
Reaches altitude 10° 02:36:25 10° 345° (NNW) 2,121 5.6 -20.0°
Maximum altitude 02:41:08 76° 260° (W) 872 3.6 -19.3°
Drops below altitude 10° 02:47:45 10° 177° (S) 2,940 6.6 -18.4°
Sets 02:50:49 0° 176° (S) 4,107 7.4 -18.0°
